EUTELSAT 36B

Last updated on Thu Nov 06 2025 00:02:46 GMT+0000 (Coordinated Universal Time)

1 36101U 09065A 25309.04526799 .00000124 00000+0 00000+0 0 9997 2 36101 0.0465 344.5331 0006450 245.3878 241.4407 1.00273424 58461
UTC large
Height (km)
Speed (km/s)
/
Latitude / Longitude
Inclination (degrees)
Orbital Period (minutes)
Azimuth
Elevation
Range (km)
Doppler Factor

Next 0 passes for location: London (51.5072 / 0.1276)

Sorry there are no passes over London.